Time,TemperatureF,DewpointF,PressureIn,WindDirection,WindDirectionDegrees,WindSpeedMPH,WindSpeedGustMPH,Humidity,HourlyPrecipIn,Conditions,Clouds,dailyrainin,SoftwareType,DateUTC
2013-03-04 00:01:00,36.0,-99.9,29.58,WNW,301,9.0,15.0,-999,-99.99,,,-99.99,,2013-03-04 05:01:00,
2013-03-04 00:11:00,36.0,-99.9,29.58,NW,304,10.0,15.0,-999,-99.99,,,-99.99,,2013-03-04 05:11:00,
2013-03-04 00:22:00,36.0,-99.9,29.58,WNW,299,9.0,12.0,-999,-99.99,,,-99.99,,2013-03-04 05:22:00,
2013-03-04 00:32:00,35.0,-99.9,29.58,NW,305,11.0,14.0,-999,-99.99,,,-99.99,,2013-03-04 05:32:00,
2013-03-04 00:43:00,35.0,-99.9,29.58,NW,310,7.0,15.0,-999,-99.99,,,-99.99,,2013-03-04 05:43:00,
2013-03-04 00:52:00,35.0,-99.9,29.59,NW,306,9.0,15.0,-999,-99.99,,,-99.99,,2013-03-04 05:52:00,
2013-03-04 01:02:00,35.0,-99.9,29.59,NW,307,11.0,16.0,-999,-99.99,,,-99.99,,2013-03-04 06:02:00,
2013-03-04 01:11:00,35.0,-99.9,29.59,NW,308,14.0,17.0,-999,-99.99,,,-99.99,,2013-03-04 06:11:00,
2013-03-04 01:22:00,35.0,-99.9,29.59,WNW,303,9.0,16.0,-999,-99.99,,,-99.99,,2013-03-04 06:22:00,
2013-03-04 01:32:00,35.0,-99.9,29.59,WNW,297,8.0,15.0,-999,-99.99,,,-99.99,,2013-03-04 06:32:00,
2013-03-04 01:42:00,35.0,-99.9,29.59,NW,311,9.0,13.0,-999,-99.99,,,-99.99,,2013-03-04 06:42:00,
2013-03-04 01:52:00,35.0,-99.9,29.59,NW,305,9.0,12.0,-999,-99.99,,,-99.99,,2013-03-04 06:52:00,
2013-03-04 02:02:00,34.0,-99.9,29.59,WNW,301,10.0,16.0,-999,-99.99,,,-99.99,,2013-03-04 07:02:00,
2013-03-04 02:11:00,34.0,-99.9,29.59,NW,304,8.0,13.0,-999,-99.99,,,-99.99,,2013-03-04 07:11:00,
2013-03-04 02:22:00,34.0,-99.9,29.59,NW,307,9.0,13.0,-999,-99.99,,,-99.99,,2013-03-04 07:22:00,
2013-03-04 02:32:00,34.0,-99.9,29.59,WNW,302,9.0,15.0,-999,-99.99,,,-99.99,,2013-03-04 07:32:00,
2013-03-04 02:42:00,34.0,-99.9,29.59,NW,308,10.0,15.0,-999,-99.99,,,-99.99,,2013-03-04 07:42:00,
2013-03-04 02:52:00,34.0,-99.9,29.59,NW,307,12.0,16.0,-999,-99.99,,,-99.99,,2013-03-04 07:52:00,
2013-03-04 03:02:00,34.0,-99.9,29.59,NW,307,11.0,17.0,-999,-99.99,,,-99.99,,2013-03-04 08:02:00,
2013-03-04 03:12:00,34.0,-99.9,29.59,NW,309,10.0,15.0,-999,-99.99,,,-99.99,,2013-03-04 08:12:00,
2013-03-04 03:22:00,34.0,-99.9,29.59,NW,307,10.0,18.0,-999,-99.99,,,-99.99,,2013-03-04 08:22:00,
2013-03-04 03:32:00,34.0,-99.9,29.59,NW,306,11.0,17.0,-999,-99.99,,,-99.99,,2013-03-04 08:32:00,
2013-03-04 03:42:00,34.0,-99.9,29.59,WNW,302,11.0,17.0,-999,-99.99,,,-99.99,,2013-03-04 08:42:00,
2013-03-04 03:52:00,34.0,-99.9,29.59,NW,305,10.0,20.0,-999,-99.99,,,-99.99,,2013-03-04 08:52:00,
2013-03-04 04:02:00,34.0,-99.9,29.59,WNW,301,11.0,20.0,-999,-99.99,,,-99.99,,2013-03-04 09:02:00,
2013-03-04 04:11:00,34.0,-99.9,29.59,WNW,291,9.0,15.0,-999,-99.99,,,-99.99,,2013-03-04 09:11:00,
2013-03-04 04:22:00,34.0,-99.9,29.60,NW,305,9.0,16.0,-999,-99.99,,,-99.99,,2013-03-04 09:22:00,
2013-03-04 04:32:00,34.0,-99.9,29.60,NW,307,9.0,21.0,-999,-99.99,,,-99.99,,2013-03-04 09:32:00,
2013-03-04 04:42:00,34.0,-99.9,29.60,NW,307,10.0,17.0,-999,-99.99,,,-99.99,,2013-03-04 09:42:00,
2013-03-04 04:52:00,34.0,-99.9,29.60,WNW,301,10.0,17.0,-999,-99.99,,,-99.99,,2013-03-04 09:52:00,
2013-03-04 05:01:00,34.0,-99.9,29.60,WNW,298,11.0,15.0,-999,-99.99,,,-99.99,,2013-03-04 10:01:00,
2013-03-04 05:12:00,34.0,-99.9,29.60,WNW,293,12.0,18.0,-999,-99.99,,,-99.99,,2013-03-04 10:12:00,
2013-03-04 05:22:00,34.0,-99.9,29.61,WNW,289,9.0,14.0,-999,-99.99,,,-99.99,,2013-03-04 10:22:00,
2013-03-04 05:32:00,33.0,-99.9,29.61,WNW,296,10.0,12.0,-999,-99.99,,,-99.99,,2013-03-04 10:32:00,
2013-03-04 05:42:00,33.0,-99.9,29.61,NW,306,6.0,14.0,-999,-99.99,,,-99.99,,2013-03-04 10:42:00,
2013-03-04 05:52:00,33.0,-99.9,29.61,WNW,300,9.0,16.0,-999,-99.99,,,-99.99,,2013-03-04 10:52:00,
2013-03-04 06:02:00,33.0,-99.9,29.61,WNW,296,11.0,17.0,-999,-99.99,,,-99.99,,2013-03-04 11:02:00,
2013-03-04 06:11:00,33.0,-99.9,29.61,NW,305,8.0,16.0,-999,-99.99,,,-99.99,,2013-03-04 11:11:00,
2013-03-04 06:22:00,33.0,-99.9,29.61,NW,304,9.0,15.0,-999,-99.99,,,-99.99,,2013-03-04 11:22:00,
2013-03-04 06:32:00,33.0,-99.9,29.61,NW,313,7.0,17.0,-999,-99.99,,,-99.99,,2013-03-04 11:32:00,
2013-03-04 06:42:00,33.0,-99.9,29.61,WNW,296,9.0,17.0,-999,-99.99,,,-99.99,,2013-03-04 11:42:00,
2013-03-04 06:52:00,33.0,-99.9,29.61,WNW,297,10.0,18.0,-999,-99.99,,,-99.99,,2013-03-04 11:52:00,
2013-03-04 07:02:00,33.0,-99.9,29.61,WNW,297,11.0,19.0,-999,-99.99,,,-99.99,,2013-03-04 12:02:00,
2013-03-04 07:12:00,33.0,-99.9,29.62,WNW,298,10.0,18.0,-999,-99.99,,,-99.99,,2013-03-04 12:12:00,
2013-03-04 07:22:00,33.0,-99.9,29.62,WNW,295,12.0,20.0,-999,-99.99,,,-99.99,,2013-03-04 12:22:00,
2013-03-04 07:32:00,33.0,-99.9,29.62,NW,312,13.0,19.0,-999,-99.99,,,-99.99,,2013-03-04 12:32:00,
2013-03-04 07:43:00,33.0,-99.9,29.62,WNW,301,10.0,18.0,-999,-99.99,,,-99.99,,2013-03-04 12:43:00,
2013-03-04 07:53:00,33.0,-99.9,29.62,WNW,301,9.0,17.0,-999,-99.99,,,-99.99,,2013-03-04 12:53:00,
2013-03-04 08:02:00,33.0,-99.9,29.62,WNW,297,10.0,18.0,-999,-99.99,,,-99.99,,2013-03-04 13:02:00,
2013-03-04 08:11:00,33.0,-99.9,29.62,NW,306,14.0,19.0,-999,-99.99,,,-99.99,,2013-03-04 13:11:00,
2013-03-04 08:22:00,34.0,-99.9,29.62,NW,307,10.0,22.0,-999,-99.99,,,-99.99,,2013-03-04 13:22:00,
2013-03-04 08:32:00,34.0,-99.9,29.62,NW,309,15.0,23.0,-999,-99.99,,,-99.99,,2013-03-04 13:32:00,
2013-03-04 08:42:00,34.0,-99.9,29.62,WNW,301,11.0,23.0,-999,-99.99,,,-99.99,,2013-03-04 13:42:00,
2013-03-04 08:52:00,34.0,-99.9,29.62,NW,308,16.0,19.0,-999,-99.99,,,-99.99,,2013-03-04 13:52:00,
2013-03-04 09:01:00,34.0,-99.9,29.62,WNW,300,9.0,19.0,-999,-99.99,,,-99.99,,2013-03-04 14:01:00,
2013-03-04 09:12:00,34.0,-99.9,29.62,WNW,303,14.0,20.0,-999,-99.99,,,-99.99,,2013-03-04 14:12:00,
2013-03-04 09:22:00,34.0,-99.9,29.62,NW,309,11.0,23.0,-999,-99.99,,,-99.99,,2013-03-04 14:22:00,
2013-03-04 09:32:00,34.0,-99.9,29.62,NW,311,15.0,22.0,-999,-99.99,,,-99.99,,2013-03-04 14:32:00,
2013-03-04 09:42:00,34.0,-99.9,29.62,WNW,301,14.0,19.0,-999,-99.99,,,-99.99,,2013-03-04 14:42:00,
2013-03-04 09:52:00,34.0,-99.9,29.62,WNW,299,12.0,20.0,-999,-99.99,,,-99.99,,2013-03-04 14:52:00,
2013-03-04 10:02:00,34.0,-99.9,29.61,WNW,300,10.0,19.0,-999,-99.99,,,-99.99,,2013-03-04 15:02:00,
2013-03-04 10:11:00,34.0,-99.9,29.61,WNW,297,11.0,18.0,-999,-99.99,,,-99.99,,2013-03-04 15:11:00,
2013-03-04 10:22:00,35.0,-99.9,29.61,WNW,303,14.0,22.0,-999,-99.99,,,-99.99,,2013-03-04 15:22:00,
2013-03-04 10:32:00,35.0,-99.9,29.61,WNW,303,13.0,21.0,-999,-99.99,,,-99.99,,2013-03-04 15:32:00,
2013-03-04 10:42:00,35.0,-99.9,29.61,NW,313,14.0,19.0,-999,-99.99,,,-99.99,,2013-03-04 15:42:00,
2013-03-04 10:52:00,35.0,-99.9,29.61,WNW,303,14.0,22.0,-999,-99.99,,,-99.99,,2013-03-04 15:52:00,
2013-03-04 11:03:00,36.0,-99.9,29.60,NW,307,11.0,21.0,-999,-99.99,,,-99.99,,2013-03-04 16:03:00,
2013-03-04 11:11:00,36.0,-99.9,29.60,NW,313,12.0,18.0,-999,-99.99,,,-99.99,,2013-03-04 16:11:00,
2013-03-04 11:22:00,36.0,-99.9,29.60,WNW,302,13.0,20.0,-999,-99.99,,,-99.99,,2013-03-04 16:22:00,
2013-03-04 11:32:00,36.0,-99.9,29.60,NW,304,14.0,21.0,-999,-99.99,,,-99.99,,2013-03-04 16:32:00,
2013-03-04 11:42:00,37.0,-99.9,29.60,WNW,302,15.0,20.0,-999,-99.99,,,-99.99,,2013-03-04 16:42:00,
2013-03-04 11:52:00,37.0,-99.9,29.60,NW,311,13.0,20.0,-999,-99.99,,,-99.99,,2013-03-04 16:52:00,
2013-03-04 12:02:00,38.0,-99.9,29.60,WNW,299,10.0,22.0,-999,-99.99,,,-99.99,,2013-03-04 17:02:00,
2013-03-04 12:11:00,38.0,-99.9,29.60,NW,304,14.0,23.0,-999,-99.99,,,-99.99,,2013-03-04 17:11:00,
2013-03-04 12:22:00,38.0,-99.9,29.59,NW,307,15.0,20.0,-999,-99.99,,,-99.99,,2013-03-04 17:22:00,
2013-03-04 12:32:00,38.0,-99.9,29.59,NW,310,14.0,23.0,-999,-99.99,,,-99.99,,2013-03-04 17:32:00,
2013-03-04 12:42:00,38.0,-99.9,29.59,NW,314,15.0,19.0,-999,-99.99,,,-99.99,,2013-03-04 17:42:00,
2013-03-04 12:52:00,39.0,-99.9,29.59,WNW,300,13.0,21.0,-999,-99.99,,,-99.99,,2013-03-04 17:52:00,
2013-03-04 13:02:00,38.0,-99.9,29.59,WNW,290,15.0,21.0,-999,-99.99,,,-99.99,,2013-03-04 18:02:00,
2013-03-04 13:11:00,39.0,-99.9,29.58,WNW,297,15.0,23.0,-999,-99.99,,,-99.99,,2013-03-04 18:11:00,
2013-03-04 13:22:00,39.0,-99.9,29.58,WNW,284,13.0,23.0,-999,-99.99,,,-99.99,,2013-03-04 18:22:00,
2013-03-04 13:33:00,39.0,-99.9,29.57,WNW,295,10.0,18.0,-999,-99.99,,,-99.99,,2013-03-04 18:33:00,
2013-03-04 13:43:00,39.0,-99.9,29.57,WNW,301,13.0,20.0,-999,-99.99,,,-99.99,,2013-03-04 18:43:00,
2013-03-04 13:52:00,39.0,-99.9,29.57,WNW,297,14.0,20.0,-999,-99.99,,,-99.99,,2013-03-04 18:52:00,
2013-03-04 14:02:00,39.0,-99.9,29.57,WNW,294,6.0,17.0,-999,-99.99,,,-99.99,,2013-03-04 19:02:00,
2013-03-04 14:12:00,39.0,-99.9,29.57,WNW,295,13.0,20.0,-999,-99.99,,,-99.99,,2013-03-04 19:12:00,
2013-03-04 14:22:00,39.0,-99.9,29.57,NW,310,13.0,19.0,-999,-99.99,,,-99.99,,2013-03-04 19:22:00,
2013-03-04 14:32:00,39.0,-99.9,29.57,NW,304,11.0,17.0,-999,-99.99,,,-99.99,,2013-03-04 19:32:00,
2013-03-04 14:42:00,39.0,-99.9,29.57,NW,306,12.0,20.0,-999,-99.99,,,-99.99,,2013-03-04 19:42:00,
2013-03-04 14:52:00,39.0,-99.9,29.57,WNW,297,11.0,18.0,-999,-99.99,,,-99.99,,2013-03-04 19:52:00,
2013-03-04 15:02:00,39.0,-99.9,29.57,WNW,298,9.0,16.0,-999,-99.99,,,-99.99,,2013-03-04 20:02:00,
2013-03-04 15:12:00,38.0,-99.9,29.57,WNW,288,10.0,19.0,-999,-99.99,,,-99.99,,2013-03-04 20:12:00,
2013-03-04 15:22:00,39.0,-99.9,29.57,WNW,296,11.0,17.0,-999,-99.99,,,-99.99,,2013-03-04 20:22:00,
2013-03-04 15:33:00,39.0,-99.9,29.57,WNW,298,10.0,16.0,-999,-99.99,,,-99.99,,2013-03-04 20:33:00,
2013-03-04 15:42:00,39.0,-99.9,29.57,WNW,294,9.0,15.0,-999,-99.99,,,-99.99,,2013-03-04 20:42:00,
2013-03-04 15:53:00,39.0,-99.9,29.57,WNW,297,12.0,19.0,-999,-99.99,,,-99.99,,2013-03-04 20:53:00,
2013-03-04 16:02:00,39.0,-99.9,29.57,NW,311,11.0,17.0,-999,-99.99,,,-99.99,,2013-03-04 21:02:00,
2013-03-04 16:12:00,39.0,-99.9,29.57,WNW,303,11.0,17.0,-999,-99.99,,,-99.99,,2013-03-04 21:12:00,
2013-03-04 16:22:00,40.0,-99.9,29.57,NW,304,12.0,16.0,-999,-99.99,,,-99.99,,2013-03-04 21:22:00,
2013-03-04 16:32:00,39.0,-99.9,29.58,WNW,303,9.0,19.0,-999,-99.99,,,-99.99,,2013-03-04 21:32:00,
2013-03-04 16:43:00,40.0,-99.9,29.58,WNW,303,10.0,17.0,-999,-99.99,,,-99.99,,2013-03-04 21:43:00,
2013-03-04 16:53:00,39.0,-99.9,29.58,WNW,302,9.0,17.0,-999,-99.99,,,-99.99,,2013-03-04 21:53:00,
2013-03-04 17:02:00,39.0,-99.9,29.59,WNW,300,9.0,19.0,-999,-99.99,,,-99.99,,2013-03-04 22:02:00,
2013-03-04 17:12:00,39.0,-99.9,29.59,WNW,298,11.0,21.0,-999,-99.99,,,-99.99,,2013-03-04 22:12:00,
2013-03-04 17:22:00,39.0,-99.9,29.60,WNW,301,9.0,17.0,-999,-99.99,,,-99.99,,2013-03-04 22:22:00,
2013-03-04 17:32:00,39.0,-99.9,29.60,NW,306,11.0,16.0,-999,-99.99,,,-99.99,,2013-03-04 22:32:00,
2013-03-04 17:43:00,38.0,-99.9,29.60,NW,308,13.0,19.0,-999,-99.99,,,-99.99,,2013-03-04 22:43:00,
2013-03-04 17:52:00,38.0,-99.9,29.61,NW,318,12.0,20.0,-999,-99.99,,,-99.99,,2013-03-04 22:52:00,
2013-03-04 18:02:00,37.0,-99.9,29.61,WNW,302,13.0,19.0,-999,-99.99,,,-99.99,,2013-03-04 23:02:00,
2013-03-04 18:12:00,37.0,-99.9,29.61,WNW,292,10.0,17.0,-999,-99.99,,,-99.99,,2013-03-04 23:12:00,
2013-03-04 18:22:00,38.0,-99.9,29.61,WNW,300,10.0,21.0,-999,-99.99,,,-99.99,,2013-03-04 23:22:00,
2013-03-04 18:32:00,37.0,-99.9,29.62,NW,310,13.0,20.0,-999,-99.99,,,-99.99,,2013-03-04 23:32:00,
2013-03-04 18:42:00,37.0,-99.9,29.62,WNW,298,12.0,19.0,-999,-99.99,,,-99.99,,2013-03-04 23:42:00,
2013-03-04 18:52:00,37.0,-99.9,29.62,WNW,295,10.0,22.0,-999,-99.99,,,-99.99,,2013-03-04 23:52:00,
2013-03-04 19:02:00,38.0,-99.9,29.62,NW,304,9.0,16.0,-999,-99.99,,,-99.99,,2013-03-05 00:02:00,
2013-03-04 19:12:00,38.0,-99.9,29.62,WNW,295,11.0,18.0,-999,-99.99,,,-99.99,,2013-03-05 00:12:00,
2013-03-04 19:22:00,39.0,-99.9,29.62,WNW,298,13.0,21.0,-999,-99.99,,,-99.99,,2013-03-05 00:22:00,
2013-03-04 19:33:00,38.0,-99.9,29.63,NW,315,12.0,20.0,-999,-99.99,,,-99.99,,2013-03-05 00:33:00,
2013-03-04 19:42:00,38.0,-99.9,29.64,NNW,331,17.0,24.0,-999,-99.99,,,-99.99,,2013-03-05 00:42:00,
2013-03-04 19:52:00,38.0,-99.9,29.64,NNW,333,11.0,21.0,-999,-99.99,,,-99.99,,2013-03-05 00:52:00,
2013-03-04 20:02:00,38.0,-99.9,29.64,NNW,327,13.0,22.0,-999,-99.99,,,-99.99,,2013-03-05 01:02:00,
2013-03-04 20:12:00,38.0,-99.9,29.65,NW,324,11.0,18.0,-999,-99.99,,,-99.99,,2013-03-05 01:12:00,
2013-03-04 20:22:00,38.0,-99.9,29.65,NNW,329,10.0,16.0,-999,-99.99,,,-99.99,,2013-03-05 01:22:00,
2013-03-04 20:33:00,38.0,-99.9,29.65,NNW,327,14.0,21.0,-999,-99.99,,,-99.99,,2013-03-05 01:33:00,
2013-03-04 20:42:00,37.0,-99.9,29.65,NW,313,15.0,23.0,-999,-99.99,,,-99.99,,2013-03-05 01:42:00,
2013-03-04 20:52:00,37.0,-99.9,29.65,NW,318,11.0,19.0,-999,-99.99,,,-99.99,,2013-03-05 01:52:00,
2013-03-04 21:02:00,37.0,-99.9,29.66,NNW,333,15.0,22.0,-999,-99.99,,,-99.99,,2013-03-05 02:02:00,
2013-03-04 21:12:00,36.0,-99.9,29.66,NNW,336,15.0,24.0,-999,-99.99,,,-99.99,,2013-03-05 02:12:00,
2013-03-04 21:22:00,36.0,-99.9,29.66,NNW,336,16.0,20.0,-999,-99.99,,,-99.99,,2013-03-05 02:22:00,
2013-03-04 21:33:00,36.0,-99.9,29.66,NW,326,12.0,19.0,-999,-99.99,,,-99.99,,2013-03-05 02:33:00,
2013-03-04 21:42:00,36.0,-99.9,29.67,NW,317,12.0,17.0,-999,-99.99,,,-99.99,,2013-03-05 02:42:00,
2013-03-04 21:53:00,36.0,-99.9,29.67,NW,320,11.0,20.0,-999,-99.99,,,-99.99,,2013-03-05 02:53:00,
2013-03-04 22:02:00,36.0,-99.9,29.67,NW,312,10.0,21.0,-999,-99.99,,,-99.99,,2013-03-05 03:02:00,
2013-03-04 22:12:00,36.0,-99.9,29.67,NW,313,15.0,24.0,-999,-99.99,,,-99.99,,2013-03-05 03:12:00,
2013-03-04 22:22:00,36.0,-99.9,29.67,NW,324,16.0,22.0,-999,-99.99,,,-99.99,,2013-03-05 03:22:00,
2013-03-04 22:32:00,36.0,-99.9,29.67,NW,326,13.0,24.0,-999,-99.99,,,-99.99,,2013-03-05 03:32:00,
2013-03-04 22:42:00,36.0,-99.9,29.67,NW,322,11.0,20.0,-999,-99.99,,,-99.99,,2013-03-05 03:42:00,
2013-03-04 22:52:00,36.0,-99.9,29.67,NW,325,14.0,22.0,-999,-99.99,,,-99.99,,2013-03-05 03:52:00,
2013-03-04 23:02:00,36.0,-99.9,29.67,NW,321,13.0,18.0,-999,-99.99,,,-99.99,,2013-03-05 04:02:00,
2013-03-04 23:12:00,36.0,-99.9,29.68,NW,326,12.0,18.0,-999,-99.99,,,-99.99,,2013-03-05 04:12:00,
2013-03-04 23:22:00,36.0,-99.9,29.68,NW,319,11.0,22.0,-999,-99.99,,,-99.99,,2013-03-05 04:22:00,
2013-03-04 23:32:00,36.0,-99.9,29.68,NW,324,14.0,20.0,-999,-99.99,,,-99.99,,2013-03-05 04:32:00,
2013-03-04 23:42:00,36.0,-99.9,29.68,NW,317,10.0,17.0,-999,-99.99,,,-99.99,,2013-03-05 04:42:00,
2013-03-04 23:52:00,36.0,-99.9,29.68,NW,315,9.0,21.0,-999,-99.99,,,-99.99,,2013-03-05 04:52:00,